Wayne, NE

12:07 AM CDT on August 24, 2017 (GMT -0500)
Wayne Municipal

Weather History for KLCG - June, 2013

Change the Weather History Date:

Saturday, June 22, 2013

  Actual Average (KOFK) Record (KOFK)
Temperature  
Mean Temperature 73 °F -  
Max Temperature 82 °F 83 °F 103 °F (1930)
Min Temperature 65 °F 59 °F 43 °F (1902)
Cooling Degree Days 8    
Growing Degree Days 23 (Base 50)    
Moisture  
Dew Point 67 °F    
Average Humidity 85    
Maximum Humidity 100    
Minimum Humidity 53    
Precipitation  
Precipitation 0.31 in - - ()
Sea Level Pressure  
Sea Level Pressure 29.86 in    
Wind  
Wind Speed 13 mph (East)    
Max Wind Speed 32 mph    
Max Gust Speed 40 mph    
Visibility 9 miles    
Events Rain , Thunderstorm    
Averages and records for this station are not official NWS values.
T = Trace of Precipitation, MM = Missing Value Source: NWS Daily Summary

Daily Weather History Graph

Daily Weather History Graph

Search for Another Location

Airport or City:

Trip Planner

Search our weather history database for the weather conditions in past years. The results will help you decide how hot, cold, wet, or windy it might be!

Date:

Astronomy

Jun. 22, 2013 Rise Set
Actual Time 5:51 AM CDT 9:08 PM CDT
Civil Twilight 5:17 AM CDT 9:42 PM CDT
Nautical Twilight 4:32 AM CDT 10:27 PM CDT
Astronomical Twilight 3:37 AM CDT 11:22 PM CDT
Moon 8:22 PM CDT (6/22) 5:06 AM CDT (6/22)
Length of Visible Light 16h 25m
Length of Day
15h 16m
Waxing Gibbous, 99% of the Moon is Illuminated
Jun 22
Waxing Gibbous
Jun 23
Full
Jun 29
Last Quarter
Jul 8
New
Jul 15
First Quarter

Hourly Weather History & Observations

Time (CDT) Temp. Heat Index Dew Point Humidity Pressure Visibility Wind Dir Wind Speed Gust Speed Precip Events Conditions
12:15 AM 81.9 °F 85.2 °F 69.1 °F 65% 29.80 in 10.0 mi South 16.1 mph - N/A   Clear
12:35 AM 81.5 °F 84.6 °F 68.9 °F 65% 29.80 in 10.0 mi South 19.6 mph - N/A   Clear
12:55 AM 81.9 °F 85.0 °F 68.5 °F 64% 29.81 in 10.0 mi SSW 19.6 mph 25.3 mph N/A   Scattered Clouds
1:15 AM 76.6 °F - 58.1 °F 53% 29.88 in 7.0 mi West 23.0 mph 40.3 mph N/A   Mostly Cloudy
1:35 AM 73.8 °F - 61.3 °F 65% 29.91 in 10.0 mi WNW 18.4 mph 32.2 mph N/A   Overcast
1:55 AM 69.1 °F - 64.9 °F 87% 29.94 in 7.0 mi WNW 19.6 mph 29.9 mph 0.02 in Rain Light Rain
2:15 AM 68.0 °F - 64.0 °F 87% 29.93 in 10.0 mi NW 15.0 mph 21.9 mph 0.01 in Rain Light Rain
2:35 AM 66.9 °F - 63.9 °F 90% 29.93 in 10.0 mi NNW 11.5 mph - 0.01 in   Clear
2:55 AM 67.1 °F - 64.0 °F 90% 29.93 in 10.0 mi NNW 9.2 mph - 0.01 in   Light Drizzle
3:15 AM 67.1 °F - 63.9 °F 89% 29.93 in 10.0 mi NNE 9.2 mph - N/A Rain Light Rain
3:35 AM 65.7 °F - 64.4 °F 96% 29.93 in 10.0 mi NNE 10.4 mph - N/A Rain Light Rain
3:55 AM 65.5 °F - 63.9 °F 94% 29.83 in 10.0 mi North 20.7 mph 31.1 mph N/A Rain Light Rain
4:15 AM 66.6 °F - 63.7 °F 90% 29.91 in 10.0 mi East 8.1 mph 16.1 mph N/A   Clear
4:35 AM 66.6 °F - 64.2 °F 92% 29.97 in 10.0 mi Calm Calm - N/A   Scattered Clouds
4:55 AM 66.2 °F - 64.9 °F 96% 30.00 in 10.0 mi Calm Calm - N/A Rain , Thunderstorm Light Thunderstorms and Rain
5:15 AM 65.8 °F - 65.3 °F 98% 29.93 in 10.0 mi NE 11.5 mph - 0.01 in Rain Light Rain
5:35 AM 66.4 °F - 65.3 °F 96% 29.95 in 10.0 mi NE 8.1 mph - 0.01 in Rain Light Rain
5:55 AM 66.4 °F - 65.5 °F 97% 29.96 in 7.0 mi NE 3.5 mph - 0.04 in Rain , Thunderstorm Light Thunderstorms and Rain
6:15 AM 66.2 °F - 65.8 °F 99% 29.99 in 10.0 mi NNW 6.9 mph - 0.02 in Rain , Thunderstorm Light Thunderstorms and Rain
6:35 AM 66.2 °F - 65.8 °F 99% 30.01 in 7.0 mi North 3.5 mph - 0.07 in Rain , Thunderstorm Rain
6:55 AM 66.2 °F - 66.2 °F 100% 30.01 in 7.0 mi ENE 4.6 mph - 0.10 in Rain , Thunderstorm Rain
7:15 AM 66.4 °F - 66.4 °F 100% 30.03 in 7.0 mi East 6.9 mph - 0.02 in Rain Light Rain
7:35 AM 66.4 °F - 66.4 °F 100% 30.03 in 4.0 mi North 5.8 mph - 0.06 in Rain , Thunderstorm Heavy Thunderstorms and Rain
7:55 AM 65.7 °F - 65.7 °F 100% 29.98 in 5.0 mi SE 16.1 mph - 0.12 in Rain Rain
8:15 AM 65.1 °F - 65.1 °F 100% 29.87 in 7.0 mi ESE 32.2 mph 36.8 mph 0.01 in Rain Light Rain
8:35 AM 65.3 °F - 64.4 °F 97% 29.87 in 10.0 mi SE 28.8 mph 36.8 mph 0.01 in Thunderstorm Scattered Clouds
8:55 AM 65.3 °F - 63.9 °F 95% 29.80 in 10.0 mi ESE 26.5 mph 36.8 mph 0.01 in   Clear
9:15 AM 65.8 °F - 63.5 °F 92% 29.79 in 10.0 mi SE 24.2 mph 31.1 mph N/A   Clear
9:35 AM 66.9 °F - 63.0 °F 87% 29.77 in 10.0 mi SSE 28.8 mph 38.0 mph N/A   Clear
9:55 AM 66.7 °F - 63.3 °F 89% 29.81 in 10.0 mi South 27.6 mph 35.7 mph N/A   Clear
10:15 AM 66.7 °F - 63.9 °F 90% 29.85 in 10.0 mi East 10.4 mph 24.2 mph N/A   Clear
10:35 AM 67.3 °F - 63.5 °F 88% 29.83 in 10.0 mi South 19.6 mph - N/A Thunderstorm Thunderstorm
10:55 AM 67.8 °F - 63.7 °F 87% 29.84 in 10.0 mi SSE 13.8 mph - N/A Rain , Thunderstorm Light Thunderstorms and Rain
11:15 AM 68.4 °F - 64.0 °F 86% 29.89 in 10.0 mi NW 5.8 mph - N/A Thunderstorm Mostly Cloudy
11:35 AM 68.9 °F - 63.9 °F 84% 29.90 in 10.0 mi Calm Calm - N/A   Mostly Cloudy
11:55 AM 67.6 °F - 65.1 °F 92% 29.90 in 10.0 mi East 4.6 mph - N/A Thunderstorm Thunderstorm
12:15 PM 71.6 °F - 65.7 °F 81% 29.91 in 10.0 mi South 3.5 mph - N/A Thunderstorm Overcast
12:35 PM 73.6 °F - 65.3 °F 75% 29.91 in 10.0 mi South 9.2 mph - N/A Thunderstorm Mostly Cloudy
12:55 PM 74.5 °F - 66.0 °F 75% 29.91 in 10.0 mi South 8.1 mph - N/A   Scattered Clouds
1:15 PM 75.6 °F - 66.4 °F 73% 29.92 in 10.0 mi SSE 6.9 mph - N/A   Scattered Clouds
1:35 PM 76.5 °F - 66.6 °F 71% 29.91 in 10.0 mi South 3.5 mph - N/A Thunderstorm Mostly Cloudy
1:55 PM 77.7 °F - 68.0 °F 72% 29.90 in 10.0 mi East 4.6 mph - N/A   Scattered Clouds
2:15 PM 78.4 °F - 68.2 °F 71% 29.89 in 7.0 mi East 3.5 mph - 0.01 in   Clear
2:35 PM 77.7 °F - 70.5 °F 78% 29.88 in 7.0 mi NE 5.8 mph - 0.01 in   Scattered Clouds
2:55 PM 77.9 °F - 71.2 °F 80% 29.88 in 7.0 mi NE 8.1 mph - 0.01 in Rain Heavy Rain
3:15 PM 76.8 °F - 70.7 °F 81% 29.88 in 10.0 mi NE 10.4 mph - N/A Rain Rain
3:35 PM 76.1 °F - 70.3 °F 82% 29.86 in 10.0 mi NE 12.7 mph - N/A Rain Rain
3:55 PM 75.2 °F - 69.8 °F 83% 29.86 in 10.0 mi NE 12.7 mph - N/A Rain Rain
4:15 PM 74.7 °F - 69.4 °F 84% 29.86 in 7.0 mi NE 9.2 mph - N/A Rain Heavy Rain
4:35 PM 74.3 °F - 69.8 °F 86% 29.85 in 10.0 mi ENE 10.4 mph - N/A Rain Heavy Rain
4:55 PM 75.4 °F - 69.3 °F 81% 29.84 in 10.0 mi ENE 11.5 mph - N/A Rain Heavy Rain
5:15 PM 75.4 °F - 69.1 °F 81% 29.84 in 10.0 mi East 11.5 mph - N/A Rain Rain
5:35 PM 76.3 °F - 69.8 °F 80% 29.82 in 10.0 mi ENE 12.7 mph 17.3 mph N/A Rain Heavy Rain
5:55 PM 76.5 °F - 69.6 °F 79% 29.81 in 7.0 mi ENE 10.4 mph 16.1 mph N/A Rain Heavy Rain
6:15 PM 77.0 °F - 69.6 °F 78% 29.80 in 7.0 mi ENE 12.7 mph - N/A Rain Heavy Rain
6:35 PM 77.0 °F - 69.8 °F 78% 29.80 in 7.0 mi ENE 12.7 mph - N/A Rain Heavy Rain
6:55 PM 75.9 °F - 69.6 °F 81% 29.79 in 7.0 mi ENE 10.4 mph - N/A Rain Rain
7:15 PM 75.4 °F - 69.1 °F 81% 29.79 in 7.0 mi ENE 12.7 mph 18.4 mph N/A Rain Heavy Rain
7:35 PM 74.8 °F - 68.9 °F 82% 29.79 in 7.0 mi ENE 12.7 mph - N/A Rain Heavy Rain
7:55 PM 74.3 °F - 68.9 °F 83% 29.79 in 7.0 mi ENE 9.2 mph - N/A Rain Rain
8:15 PM 73.6 °F - 69.4 °F 87% 29.78 in 10.0 mi ENE 10.4 mph - N/A Rain Rain
8:35 PM 73.8 °F - 69.8 °F 87% 29.77 in 7.0 mi East 12.7 mph - N/A Rain Rain
8:55 PM 73.8 °F - 69.3 °F 86% 29.76 in 7.0 mi East 12.7 mph 19.6 mph N/A Rain Rain
9:15 PM 73.4 °F - 69.4 °F 87% 29.77 in 7.0 mi ESE 10.4 mph - N/A Rain Rain
9:35 PM 73.6 °F - 69.8 °F 88% 29.77 in 7.0 mi ESE 9.2 mph - N/A Rain Rain
9:55 PM 73.6 °F - 70.0 °F 88% 29.78 in 10.0 mi ESE 10.4 mph - N/A Rain Rain
10:15 PM 75.4 °F - 69.8 °F 83% 29.78 in 7.0 mi ESE 12.7 mph - N/A Rain Heavy Rain
10:35 PM 76.1 °F - 69.6 °F 80% 29.78 in 7.0 mi SE 13.8 mph - N/A Rain Heavy Rain
10:55 PM 76.5 °F - 68.5 °F 76% 29.76 in 7.0 mi SE 16.1 mph - N/A Rain Rain
11:15 PM 76.5 °F - 68.4 °F 76% 29.74 in 7.0 mi SSE 16.1 mph 21.9 mph N/A Rain Heavy Rain
11:35 PM 76.3 °F - 68.9 °F 78% 29.73 in 7.0 mi SSE 19.6 mph 23.0 mph N/A Rain Heavy Rain
11:55 PM 77.4 °F - 68.9 °F 75% 29.70 in 7.0 mi South 23.0 mph 31.1 mph N/A Rain Heavy Rain